TimeMDT,TemperatureF,Dew PointF,Humidity,Sea Level PressureIn,VisibilityMPH,Wind Direction,Wind SpeedMPH,Gust SpeedMPH,PrecipitationIn,Events,Conditions,WindDirDegrees,DateUTC
12:53 AM,46.0,30.0,54,30.01,10.0,SE,5.8,-,N/A,,Clear,130,2013-10-12 06:53:00
1:53 AM,46.0,30.9,56,30.01,10.0,SE,8.1,-,N/A,,Clear,130,2013-10-12 07:53:00
2:53 AM,45.0,30.9,58,30.01,10.0,SE,6.9,-,N/A,,Clear,130,2013-10-12 08:53:00
3:53 AM,45.0,30.9,58,29.99,10.0,SE,6.9,-,N/A,,Partly Cloudy,130,2013-10-12 09:53:00
4:53 AM,46.0,30.9,56,29.98,10.0,ESE,9.2,-,N/A,,Scattered Clouds,120,2013-10-12 10:53:00
5:53 AM,45.0,30.9,58,29.98,10.0,SE,9.2,-,N/A,,Mostly Cloudy,140,2013-10-12 11:53:00
6:53 AM,45.0,30.9,58,29.97,10.0,SE,8.1,-,N/A,,Partly Cloudy,130,2013-10-12 12:53:00
7:53 AM,43.0,30.9,62,30.00,10.0,SE,8.1,-,N/A,,Partly Cloudy,140,2013-10-12 13:53:00
8:53 AM,45.0,32.0,60,29.99,10.0,SE,9.2,-,N/A,,Clear,130,2013-10-12 14:53:00
9:53 AM,51.1,32.0,48,29.99,10.0,SE,10.4,-,N/A,,Scattered Clouds,140,2013-10-12 15:53:00
10:53 AM,55.0,28.9,37,29.96,10.0,SE,10.4,-,N/A,,Clear,130,2013-10-12 16:53:00
11:53 AM,57.9,28.9,33,29.96,10.0,Variable,3.5,-,N/A,,Clear,0,2013-10-12 17:53:00
12:53 PM,61.0,30.0,31,29.93,10.0,Calm,Calm,-,N/A,,Clear,0,2013-10-12 18:53:00
1:53 PM,61.0,28.0,29,29.91,10.0,SSW,4.6,-,N/A,,Scattered Clouds,210,2013-10-12 19:53:00
2:53 PM,63.0,28.9,28,29.89,10.0,NW,4.6,-,N/A,,Partly Cloudy,320,2013-10-12 20:53:00
3:53 PM,62.1,28.9,29,29.88,10.0,West,4.6,-,N/A,,Partly Cloudy,270,2013-10-12 21:53:00
4:53 PM,63.0,30.9,30,29.86,9.0,NW,10.4,-,N/A,,Clear,310,2013-10-12 22:53:00
5:53 PM,60.1,33.1,36,29.88,10.0,WNW,12.7,-,N/A,,Scattered Clouds,300,2013-10-12 23:53:00
6:53 PM,57.0,33.1,40,29.89,10.0,NNW,10.4,-,N/A,,Clear,330,2013-10-13 00:53:00
7:53 PM,55.0,34.0,45,29.91,10.0,NW,9.2,-,N/A,,Clear,310,2013-10-13 01:53:00
8:53 PM,53.1,34.0,48,29.91,9.0,NW,9.2,-,N/A,,Clear,310,2013-10-13 02:53:00
9:53 PM,52.0,35.1,53,29.92,10.0,WSW,5.8,-,N/A,,Overcast,250,2013-10-13 03:53:00
10:53 PM,50.0,35.1,57,29.94,10.0,Variable,5.8,-,N/A,,Mostly Cloudy,0,2013-10-13 04:53:00
11:53 PM,48.9,36.0,61,29.94,10.0,WSW,8.1,-,N/A,,Overcast,250,2013-10-13 05:53:00